カタログに戻る

COSMOS 2251 DEB

運用中LEO
NORAD 35646·DEBRIS·🇷🇺 Russia

打ち上げ Jun 16, 1993 から Plesetsk Cosmodrome

Loading…

次のパス (今後24時間)

TLE

最新Source: Space-Track

元期: Sep 14, 2026, 14:08 UTC

1 35646U 93036ANM 26257.58917078  .00000155  00000-0  16983-3 0  9993
2 35646  73.8716 338.1063 0457856  40.6721  22.9594 13.41211243855569

AllMySatでCOSMOS 2251 DEBをリアルタイム追跡

Download on the App Store